Location: Battery Park City
(40.7115°N, 74.0163°W)
Time: 23:50:11
(UTC+00:00)

Okean 1-7 - Pass Details

Date: 08 December 2019
Orbit: 590 x 619 km, 82.5° (Epoch: 26 January)

Event Time Altitude Azimuth Distance (km) Brightness Sun altitude
Rises 23:38:04 0° 200° (SSW) 2,839 6.9 -23.8°
Reaches altitude 10° 23:40:19 10° 206° (SSW) 1,945 6.0 -24.2°
Maximum altitude 23:44:28 48° 281° (W) 800 3.9 -25.0°
Enters shadow 23:46:55 23° 345° (NNW) 1,313 4.7 -25.5°
